[[{"header":{"parameterUnit":"m.s-1","parameterCategory":1,"la1":30.2991,"la2":30.254,"lo1":-89.0895,"lo2":-89.0444,"dy":0.0017,"dx":0.0017,"nx":28,"ny":28,"refTime":"2025-04-14T03:00:00:Z","depth":0,"parameterNumber":2,"parameterNumberName":"U-component_of_WINDS"},"data":[0,0,0,0,0,0,0,0,0,0,0,0,0,0,0,0,0,0,0,0,0,0,0,0,0,0,0,0,0,0,0,0,0,0,0,0,0,0,0,0,0,0,0,0,0,0,0,0,0,0,0,0,0,0,0,0,0,0,3.3621,3.3623,0,3.3783,3.3785,3.3786,3.3774,3.3771,3.3769,3.3767,3.393,3.3937,3.3943,0,0,0,0,0,0,0,0,0,0,0,0,0,3.3298,3.3304,3.3621,3.3623,3.3625,3.3783,3.3785,3.3787,3.3774,3.3771,3.3768,3.3766,3.3928,3.3936,3.3944,0,0,0,0,0,0,0,0,0,0,0,0,0,3.3447,3.3306,3.3621,3.3638,3.3641,3.3782,3.3785,3.3788,3.3775,3.3771,3.3768,3.3764,3.3925,3.3935,3.3945,3.4079,0,0,3.3975,3.3979,0,0,0,0,0,0,0,0,3.3438,3.3458,3.3633,3.3637,3.3641,3.3754,3.3731,3.3885,3.3776,3.3724,3.3767,3.3762,3.3875,3.3888,3.3927,3.4087,3.4094,3.3976,3.3982,3.3986,3.3989,0,0,0,0,0,0,0,3.3428,3.3451,3.3685,3.3636,3.364,3.3636,3.3653,3.376,3.3818,3.3728,3.3728,3.3747,3.3876,3.3917,3.393,3.4096,3.3976,3.3985,3.3991,3.3995,3.4369,3.4373,0,0,0,0,0,0,3.3414,3.3443,3.368,3.369,3.3529,3.3645,3.3664,3.3722,3.3816,3.3827,3.375,3.3746,3.3902,3.3919,3.3936,3.4095,3.3986,3.3996,3.4001,3.4365,3.437,3.4374,0,0,0,0,0,0,3.3407,3.3435,3.3673,3.3566,3.3596,3.3654,3.3719,3.3727,3.3768,3.3833,3.3843,3.3782,3.39,3.3922,3.4042,3.4101,3.4,3.4009,3.436,3.4367,3.4372,3.4418,0,0,0,0,0,0,3.3398,3.3433,3.3486,3.3568,3.3602,3.3779,3.3723,3.3733,3.3785,3.3781,3.3865,3.3876,3.3899,3.4028,3.4052,3.4113,3.4017,3.4355,3.4363,3.437,3.4411,3.4424,3.4436,0,0,0,0,0,3.3387,3.3493,3.3488,3.3517,3.3669,3.3782,3.3802,3.3826,3.379,3.3842,3.3884,3.3873,3.4091,3.404,3.4068,3.4132,3.4352,3.4361,3.437,3.4405,3.4422,3.4436,0,0,0,0,0,0,3.3416,3.3504,3.35,3.3636,3.3702,3.378,3.3846,3.3843,3.392,3.3913,3.394,3.3959,3.4079,3.4118,3.406,3.4265,3.4216,3.4231,3.4234,3.425,3.4262,3.4249,3.4025,0,0,0,0,0,3.3438,3.3524,3.3595,3.3708,3.3741,3.3788,3.3839,3.3852,3.392,3.3948,3.3998,3.4064,3.4147,3.4202,3.4282,3.4417,3.4433,3.4475,3.4487,3.4497,3.4509,3.4579,3.4597,3.4404,3.4404,3.4403,0,0,3.3485,3.3544,3.3596,3.3716,3.3768,3.3853,3.3812,3.3905,3.3968,3.3962,3.4077,3.4117,3.4192,3.4319,3.4378,3.4356,3.4566,3.4509,3.4516,3.4523,3.459,3.4608,3.4625,3.441,3.4409,3.4408,0,0,3.3614,3.3668,3.3766,3.3819,3.3899,3.3929,3.3952,3.4031,3.4056,3.4173,3.4169,3.4244,3.4388,3.444,3.4486,3.4631,3.4623,3.4657,3.4721,3.4789,3.4804,3.4817,3.4865,3.4883,3.4669,3.4669,3.4669,0,3.3661,3.3791,3.3817,3.391,3.3961,3.396,3.4057,3.4108,3.4209,3.4244,3.4218,3.4395,3.4446,3.4584,3.4619,3.4658,3.4682,3.4646,3.48,3.4814,3.4827,3.4873,3.4891,3.4673,3.4672,3.4672,3.4672,0,3.3844,3.3934,3.4004,3.4101,3.416,3.4256,3.4293,3.435,3.4358,3.439,3.4507,3.4568,3.4659,3.4693,3.4703,3.4831,3.4814,3.4794,3.4746,3.4848,3.4891,3.4909,3.4677,3.4676,3.4675,3.4674,0,0,3.3995,3.4104,3.4128,3.4171,3.4258,3.4327,3.4421,3.451,3.4556,3.4626,3.4703,3.4823,3.4804,3.4856,3.4871,3.4931,3.5037,3.4903,3.4905,3.4922,3.5178,3.519,3.521,3.5033,3.5037,3.504,3.517,0,3.4129,3.4295,3.432,3.4466,3.4547,3.4546,3.4627,3.4688,3.472,3.4793,3.4828,3.4912,3.4882,3.4913,3.4973,3.5012,3.5088,3.5003,3.5102,3.5105,3.508,3.5234,3.5248,3.5368,3.5188,3.5191,3.5193,0,3.4307,3.4381,3.4535,3.4607,3.4642,3.4715,3.4796,3.4867,3.4934,3.4953,3.501,3.5017,3.5111,3.5061,3.519,3.5131,3.5173,3.5198,3.5204,3.5211,3.5153,3.5241,3.5407,3.5424,3.5221,3.5219,3.5217,0,3.4396,3.4534,3.4643,3.468,3.4769,3.4819,3.4858,3.4922,3.4973,3.5044,3.5076,3.5158,3.5202,3.5264,3.5291,3.5253,3.5417,3.537,3.5433,3.5432,3.5465,3.5462,3.5636,3.5498,3.5498,3.5498,3.5497,0,3.4541,3.4634,3.4684,3.475,3.4854,3.4881,3.4982,3.5019,3.5076,3.5148,3.5153,3.522,3.5254,3.5326,3.5349,3.5449,3.547,3.5486,3.549,3.5484,3.5481,3.5509,3.55,3.5503,3.5502,3.5501,3.55,0,3.4657,3.4695,3.4812,3.4886,3.4907,3.4979,3.5041,3.5104,3.5136,3.5227,3.525,3.5299,3.5383,3.5417,3.5522,3.5536,3.5651,3.5651,3.5628,3.5628,3.5687,3.568,3.5883,3.5909,3.5758,3.5759,3.576,0,3.4745,3.4817,3.4898,3.4946,3.4986,3.5066,3.5117,3.5146,3.5198,3.5279,3.5332,3.5417,3.5485,3.562,3.5664,3.5743,3.5742,3.5807,3.5753,3.5743,3.5738,3.5732,3.5737,3.5816,3.5818,3.5819,3.582,0,3.4897,3.4911,3.4985,3.5065,3.5126,3.519,3.5253,3.5292,3.533,3.5389,3.5475,3.5529,3.5634,3.5716,3.5797,3.5835,3.5833,3.5837,3.5855,3.5847,3.5829,3.5835,3.5651,3.5831,3.583,3.5829,3.5829,3.5828,3.4999,3.506,3.5126,3.5207,3.5257,3.5315,3.5377,3.5416,3.5489,3.5576,3.5589,3.568,3.5743,3.5851,3.5893,3.5963,3.5946,3.5973,3.5979,3.5984,3.5986,3.5821,3.5978,3.5978,3.5978,3.5978,3.5978,0,3.5146,3.5188,3.5263,3.535,3.5413,3.5407,3.5475,3.5527,3.5608,3.5668,3.5735,3.5832,3.5911,3.5961,3.604,3.6087,3.6087,3.6106,3.6101,3.6109,3.5999,3.5974,3.6104,3.6104,3.6104,3.6104,3.6104,3.6104,3.523,3.5333,3.5355,3.5482,3.5523,3.5612,3.5651,3.5703,3.575,3.5859,3.5925,3.5957,3.6011,3.6094,3.6166,3.6178,3.6205,3.6225,3.6235,3.6131,3.6118,3.6105,3.6081,3.6232,3.6232,3.6339,3.634,3.6341]},{"header":{"parameterUnit":"m.s-1","parameterCategory":1,"la1":30.2991,"la2":30.254,"lo1":-89.0895,"lo2":-89.0444,"dy":0.0017,"dx":0.0017,"nx":28,"ny":28,"refTime":"2025-04-14T03:00:00:Z","depth":0,"parameterNumber":3,"parameterNumberName":"V-component_of_WINDS"},"data":[0,0,0,0,0,0,0,0,0,0,0,0,0,0,0,0,0,0,0,0,0,0,0,0,0,0,0,0,0,0,0,0,0,0,0,0,0,0,0,0,0,0,0,0,0,0,0,0,0,0,0,0,0,0,0,0,0,0,3.0816,3.0817,0,3.0887,3.0888,3.0889,3.0846,3.0844,3.0842,3.084,3.091,3.0913,3.0917,0,0,0,0,0,0,0,0,0,0,0,0,0,3.0637,3.064,3.0816,3.0817,3.0818,3.0887,3.0888,3.0889,3.0846,3.0844,3.0841,3.0839,3.0908,3.0913,3.0917,0,0,0,0,0,0,0,0,0,0,0,0,0,3.0712,3.0641,3.0816,3.0805,3.0804,3.0887,3.0888,3.089,3.0847,3.0844,3.0841,3.0838,3.0907,3.0912,3.0918,3.1014,0,0,3.0935,3.0938,0,0,0,0,0,0,0,0,3.0708,3.0719,3.0805,3.0806,3.0805,3.0855,3.0851,3.0931,3.0848,3.0831,3.084,3.0836,3.0894,3.09,3.092,3.1018,3.1021,3.0936,3.0939,3.0941,3.0943,0,0,0,0,0,0,0,3.0703,3.0715,3.0844,3.0807,3.0807,3.0794,3.0802,3.0866,3.0878,3.0832,3.0829,3.0838,3.0893,3.0915,3.0921,3.1022,3.0935,3.094,3.0944,3.0946,3.1199,3.1202,0,0,0,0,0,0,3.0699,3.0711,3.0842,3.0846,3.0748,3.08,3.0808,3.0842,3.0878,3.088,3.0841,3.0836,3.0907,3.0915,3.0924,3.1037,3.0941,3.0947,3.095,3.1195,3.12,3.1203,0,0,0,0,0,0,3.0695,3.0711,3.0839,3.0778,3.0793,3.0807,3.0845,3.0845,3.0867,3.0884,3.0886,3.0861,3.0905,3.0916,3.0992,3.1039,3.0949,3.0954,3.1192,3.1197,3.1201,3.1267,0,0,0,0,0,0,3.069,3.071,3.0748,3.0779,3.0797,3.0908,3.0848,3.0849,3.0877,3.0872,3.0904,3.0906,3.0903,3.0984,3.0997,3.1045,3.0959,3.1187,3.1194,3.12,3.126,3.1273,3.1284,0,0,0,0,0,3.0684,3.0763,3.075,3.0766,3.0845,3.0911,3.092,3.0916,3.0881,3.0919,3.0929,3.0905,3.1032,3.0992,3.1007,3.1057,3.1184,3.1192,3.1199,3.1255,3.1271,3.1284,0,0,0,0,0,0,3.0737,3.0767,3.0753,3.0845,3.0876,3.0903,3.0951,3.0933,3.0973,3.0966,3.0958,3.0966,3.1045,3.1058,3.1013,3.1151,3.1102,3.1113,3.1139,3.1155,3.1166,3.1161,3.0963,0,0,0,0,0,3.0759,3.0811,3.0835,3.0913,3.093,3.0938,3.0966,3.096,3.099,3.1003,3.1019,3.1049,3.1095,3.1125,3.1169,3.1262,3.1267,3.1304,3.1316,3.1326,3.1335,3.1383,3.1399,3.1228,3.1228,3.1227,0,0,3.0806,3.0829,3.0862,3.0925,3.0948,3.1,3.0949,3.1007,3.1045,3.1011,3.1084,3.1097,3.1129,3.1213,3.1251,3.1227,3.1383,3.1335,3.1343,3.1347,3.1392,3.1408,3.1423,3.1233,3.1232,3.1231,0,0,3.0918,3.0941,3.1009,3.1033,3.1068,3.1073,3.1089,3.1119,3.1126,3.1199,3.1174,3.1219,3.1299,3.1322,3.1345,3.1463,3.1441,3.1477,3.154,3.1587,3.16,3.1612,3.1653,3.1668,3.1487,3.1487,3.1487,0,3.0971,3.1051,3.1045,3.1105,3.1132,3.1105,3.1172,3.1195,3.1242,3.126,3.1233,3.1332,3.1352,3.144,3.1469,3.1489,3.1505,3.1474,3.1599,3.1611,3.1622,3.1661,3.1676,3.1491,3.149,3.149,3.149,0,3.1113,3.1169,3.1219,3.1266,3.1298,3.1362,3.1364,3.1397,3.1388,3.1394,3.1468,3.149,3.1537,3.1558,3.1549,3.1644,3.1628,3.16,3.1551,3.1642,3.1679,3.1694,3.1497,3.1495,3.1494,3.1493,0,0,3.1262,3.1304,3.1322,3.1343,3.1379,3.142,3.1481,3.1528,3.1556,3.1589,3.1638,3.1706,3.1679,3.1705,3.1698,3.1739,3.1829,3.1706,3.1706,3.1727,3.1934,3.1954,3.1972,3.1815,3.1818,3.182,3.1931,0,3.1375,3.1482,3.1478,3.1578,3.1627,3.1601,3.1653,3.168,3.1687,3.1729,3.1736,3.1784,3.1747,3.1762,3.1801,3.181,3.1871,3.1802,3.1859,3.1862,3.1852,3.1991,3.2013,3.2116,3.1945,3.1947,3.1949,0,3.1522,3.156,3.1665,3.1692,3.1712,3.176,3.1801,3.1842,3.1871,3.1873,3.1901,3.1887,3.1946,3.1895,3.1975,3.1928,3.1951,3.1959,3.1963,3.1967,3.1911,3.1998,3.2149,3.2164,3.1972,3.197,3.1968,0,3.1617,3.1695,3.1768,3.1786,3.182,3.1853,3.1868,3.1894,3.1922,3.1957,3.1975,3.2016,3.2039,3.207,3.2067,3.2031,3.2148,3.2097,3.2149,3.215,3.2175,3.2174,3.2331,3.2191,3.2191,3.2191,3.219,0,3.1744,3.1809,3.1811,3.1855,3.1926,3.192,3.199,3.2001,3.2024,3.2068,3.2048,3.209,3.2083,3.2124,3.2122,3.2188,3.2198,3.22,3.2199,3.2202,3.2201,3.2216,3.2209,3.2195,3.2194,3.2193,3.2192,0,3.1863,3.1868,3.1944,3.197,3.1977,3.2028,3.2049,3.209,3.2095,3.2151,3.2164,3.2172,3.2219,3.2219,3.2273,3.2271,3.2351,3.2342,3.2342,3.234,3.2392,3.2386,3.2564,3.2586,3.2433,3.2434,3.2435,0,3.1943,3.1993,3.2023,3.2052,3.207,3.2117,3.2144,3.2139,3.2169,3.2204,3.224,3.2286,3.2322,3.2399,3.2408,3.2448,3.2439,3.2498,3.2445,3.2446,3.2439,3.2435,3.2439,3.2509,3.251,3.2512,3.2513,0,3.2085,3.2084,3.2126,3.2169,3.2203,3.2236,3.2266,3.229,3.2288,3.2322,3.237,3.2399,3.2453,3.2498,3.2537,3.255,3.2531,3.253,3.2544,3.2547,3.2545,3.2545,3.2369,3.2525,3.2524,3.2523,3.2523,3.2522,3.2186,3.2228,3.2256,3.2303,3.2325,3.2353,3.2392,3.2402,3.2443,3.2488,3.2482,3.2536,3.256,3.2611,3.2627,3.2668,3.2647,3.2668,3.2673,3.2678,3.2683,3.2539,3.2675,3.2675,3.2674,3.2674,3.2674,0,3.2325,3.2342,3.2385,3.2428,3.2464,3.2444,3.2475,3.2506,3.2554,3.258,3.2616,3.2671,3.2713,3.2725,3.2766,3.2796,3.2788,3.2807,3.2804,3.2807,3.27,3.2684,3.2813,3.2813,3.2813,3.2813,3.2813,3.2813,3.2402,3.2471,3.2474,3.2553,3.2568,3.2621,3.2641,3.2666,3.2686,3.2749,3.2785,3.2792,3.2812,3.2853,3.2891,3.2893,3.2909,3.2931,3.293,3.2829,3.2815,3.2802,3.2786,3.2935,3.2935,3.3033,3.3034,3.3035]}]]